Back to catalog

ARIANE 2 DEB

LostHEO
NORAD 28568·DEBRIS·🇫🇷 France

Launched Jan 27, 1989 from Guiana Space Centre

Loading…

Next Passes (next 24 hours)

TLE

StaleSource: Space-Track

Epoch: Sep 17, 2015, 10:44 UTC

1 28568U 89006AK  15260.44768753  .00000014  00000-0  10000-3 0  9999
2 28568  11.7365   0.1124 6212483 317.8807   8.4652  2.24021894 90356

Track ARIANE 2 DEB in real time with AllMySat

Download on the App Store